Location: Marsån
(66.4167°N, 22.2833°E)
Time: 10:21:02
(UTC+00:00)

Meteor 1-13 Rocket - Pass Details

Date: 24 February 2024
Orbit: 830 x 912 km, 81.3° (Epoch: 15 April)

Event Time Altitude Azimuth Distance (km) Brightness Sun altitude
Rises 20:26:26 0° 339° (NNW) 3,391 8.4 -28.4°
Reaches altitude 10° 20:28:51 10° 337° (NNW) 2,453 7.5 -28.5°
Enters shadow 20:34:17 68° 260° (W) 901 4.3 -28.9°
